Theta_e
339 339 339 340 340 340 341 340 338 337 335 334 334 333 333 332 334 336 336 336 334 333 332 330 328 327 321
336 333 334 336 337 337 337 334 332 332 333 332 330 333 333 332 333 333 334 333 332 330 329 327 326 323 316
334 330 330 331 332 331 330 327 324 323 323 323 326 331 334 331 331 332 332 330 327 326 326 325 322 317 317
335 331 330 329 327 326 324 323 321 319 319 321 322 327 330 330 331 331 328 323 317 313 315 319 316 316 316
335 333 329 327 324 322 321 320 318 316 316 318 319 319 319 318 317 319 314 313 312 311 311 313 314 315 315
334 333 334 330 323 321 320 319 316 314 314 314 315 315 315 313 310 309 309 310 310 310 311 311 313 316 316
332 333 333 332 327 322 319 319 317 314 313 313 313 313 313 311 309 307 307 308 308 308 309 310 311 314 316
332 332 331 332 331 324 320 319 317 316 313 312 311 312 311 310 309 308 307 307 307 307 306 308 308 310 312
331 331 331 331 331 329 323 319 318 317 314 312 311 313 312 313 311 310 308 307 306 307 306 307 306 306 308
329 330 331 331 330 330 328 322 321 321 319 316 314 314 314 312 311 309 307 305 305 305 305 304 304 304 305
328 328 329 329 330 330 329 326 324 322 321 318 316 315 313 311 310 308 305 305 303 301 301 300 300 301 302
328 326 326 324 329 329 330 329 325 324 323 320 318 315 313 311 310 308 305 301 302 300 297 295 294 294 296
327 327 327 326 327 326 326 328 329 325 325 321 320 316 313 311 310 309 304 300 296 295 294 294 292 291 291
327 327 325 327 327 326 325 326 329 329 328 323 321 317 315 313 310 308 304 299 297 296 296 291 294 294 291
327 320 315 316 315 317 317 322 325 329 329 326 324 321 316 315 312 309 307 305 299 294 295 298 289 291 287
322 321 321 324 323 323 322 317 317 321 327 328 326 323 319 317 316 311 309 307 306 297 295 295 295 294 292
Wind_Speed
10 10 10 9 10 10 9 9 10 10 10 11 11 11 12 11 12 13 12 13 14 14 14 14 13 12 7
6 8 9 9 9 9 9 10 10 9 9 9 8 8 11 10 11 12 12 13 13 14 14 13 13 12 7
6 6 7 9 8 8 8 9 7 5 5 6 6 7 10 10 11 12 12 12 12 12 12 11 10 4 5
5 6 5 5 5 5 5 6 4 5 4 5 5 7 9 8 10 11 11 10 8 4 4 7 3 5 4
7 6 3 3 3 3 6 5 5 4 3 3 3 3 3 6 3 5 5 3 5 4 4 4 4 4 2
8 7 5 4 3 3 4 6 4 3 3 3 3 3 3 2 4 3 2 3 4 4 5 5 4 3 2
10 7 6 6 4 4 4 5 4 4 4 4 3 3 3 3 3 3 3 3 3 3 4 5 5 4 6
11 11 7 6 6 4 4 5 6 5 4 4 4 4 3 3 3 4 5 4 3 2 3 4 5 4 5
13 12 9 7 6 6 5 6 7 6 6 6 4 4 4 4 4 2 1 1 3 2 3 2 3 4 5
10 10 9 9 8 7 7 7 10 9 8 6 5 5 4 4 4 4 2 1 1 2 2 3 2 3 3
10 8 8 9 10 9 9 7 12 12 10 8 7 6 6 5 5 4 2 4 3 2 1 1 2 3 3
7 5 4 4 6 6 8 8 10 10 12 10 7 7 7 6 5 5 4 2 1 3 1 1 3 3 4
8 8 8 8 7 6 6 9 10 8 11 12 8 8 8 9 11 9 4 5 3 4 2 2 3 5 6
10 8 5 7 7 7 6 7 11 11 11 10 10 9 10 7 9 10 10 4 3 7 5 3 3 3 7
12 4 3 3 2 3 3 6 9 10 11 12 12 11 11 10 9 11 11 12 8 6 7 5 2 8 0
9 8 10 10 11 9 6 4 5 9 11 11 12 12 12 10 11 11 10 10 8 8 4 9 4 3 4
Wind_Direction
152 146 140 137 129 126 121 116 106 117 126 121 121 127 121 117 117 103 104 98 92 91 90 87 79 80 74
151 144 140 136 127 126 109 110 112 113 108 111 105 130 123 118 114 113 109 107 104 103 103 98 99 89 88
148 149 140 138 131 126 120 119 104 113 114 111 126 129 123 130 128 115 110 105 97 89 93 101 93 93 97
148 150 152 141 147 140 137 140 124 128 134 125 128 114 120 129 124 123 117 105 90 82 78 86 88 99 94
167 165 146 146 142 148 154 147 136 128 118 109 101 93 93 82 70 95 98 90 107 110 99 103 110 100 103
177 178 165 166 154 158 169 153 140 132 128 134 129 132 126 118 110 104 99 110 108 110 127 131 145 144 121
182 181 176 183 174 168 166 162 145 145 161 148 151 159 156 142 142 133 132 136 138 139 139 154 167 173 146
188 190 186 185 182 166 173 176 163 159 158 161 166 180 176 167 184 168 170 172 172 153 181 184 184 187 160
192 194 195 193 186 183 183 175 174 170 172 172 171 190 193 170 160 182 179 118 153 170 192 264 237 213 183
190 189 195 200 202 198 189 186 187 186 179 178 183 201 175 165 167 164 150 95 214 214 198 196 225 295 302
191 187 190 191 200 203 205 193 189 189 185 182 192 196 169 174 181 166 163 161 181 209 231 299 255 223 226
184 177 177 176 199 191 199 198 195 191 187 191 194 185 171 175 185 186 170 139 173 160 120 341 303 294 274
187 195 209 212 210 205 197 192 199 204 196 193 195 192 188 188 194 191 150 183 157 146 106 236 255 241 241
198 202 195 198 219 218 205 201 201 198 196 197 202 197 197 198 196 182 184 161 159 181 158 107 280 282 234
202 127 99 81 86 140 190 205 209 204 201 197 205 204 194 198 203 198 195 196 201 192 200 160 141 235 119
182 186 200 214 223 225 216 212 198 207 217 216 209 208 201 199 208 204 198 203 196 199 229 233 237 136 248